Location: Colorado Springs
(38.8340°N, 104.8210°W)
Time: 19:21:06
(UTC-06:00)

Tiangong 1 - Pass Details

Date: 16 October 2017
Orbit: 293 x 320 km, 42.8° (Epoch: 19 October)

Event Time Altitude Azimuth Distance (km) Brightness Sun altitude
Rises 19:56:00 0° 279° (W) 2,037 6.4 -19.7°
Reaches altitude 10° 19:58:24 10° 257° (WSW) 1,199 4.6 -20.1°
Maximum altitude 20:00:13 17° 215° (SW) 900 3.2 -20.5°
Enters shadow 20:00:26 16° 208° (SSW) 904 3.2 -20.5°
